Location: Marcé
(47.5801°N, 0.3280°W)
Time: 01:23:44
(UTC+01:00)

Tiros 1 - Pass Details

Date: 08 December 2021
Orbit: 629 x 664 km, 48.4° (Epoch: 26 January)

Event Time Altitude Azimuth Distance (km) Brightness Sun altitude
Rises 18:04:49 0° 228° (SW) 2,907 12.2 -8.9°
Reaches altitude 10° 18:07:11 10° 222° (SW) 2,004 10.9 -9.3°
Maximum altitude 18:11:33 43° 151° (SSE) 887 7.8 -10.0°
Enters shadow 18:15:22 13° 83° (E) 1,808 8.8 -10.6°
